Regional Weather Roundup
Issued by NWS

Home | Current Version | Previous Version | Text Only | Print | Product List | Glossary On
Versions: 1 2 3 4 5 6 7 8 9 10 11 12 13 14 15 16 17 18 19 20 21 22 23 24 25 26 27
000
ASUS45 KSLC 201510
RWRUT

UTAH REGIONAL WEATHER ROUNDUP
NATIONAL WEATHER SERVICE SALT LAKE CITY UT
800 AM MST FRI JAN 20 2017

UTZ001>011-023>025-201600-

NORTHERN UTAH

CITY           SKY/WX    TMP DP  RH WIND       PRES   REMARKS
BRIGHAM CITY     N/A     30  28  92 S3        29.62F VSB 3/4
HILL AFB       SNOW      28  28  97 S3        29.59S VSB 1/2
LOGAN          FOG       27  27 100 NE6       29.60F VSB 1/2 WCI  20
OGDEN          LGT SNOW  29  28  96 CALM      29.60F FOG
SALT LAKE CITY MOCLDY    31  30  96 S3        29.61S FOG
TOOELE VALLEY  FOG       28  28 100 CALM      29.61F VSB 3/4
WENDOVER       CLOUDY    23  21  93 CALM      29.61F
HEBER CITY     LGT SNOW  28  27  93 CALM      29.57F
WEST JORDAN    CLOUDY    30  30 100 S3        29.61S

$$

UTZ011>015-024>027-201600-

CENTRAL/NORTHEAST UTAH

CITY           SKY/WX    TMP DP  RH WIND       PRES   REMARKS
PROVO AIRPORT  MIX PCPN  32  31  96 CALM      29.62F VSB 1/2
MOAB/CANYONLAN CLOUDY    31  30  96 CALM      29.63R
DELTA          CLOUDY    30  30 100 S9        29.61F WCI  22
PRICE          CLOUDY    21  20  96 N3        29.60R
ROOSEVELT      CLOUDY    19  16  86 E3        29.67S FOG
VERNAL         LGT SNOW  17  14  88 CALM      29.65S FOG

$$

UTZ013>016-019>022-027-201600-

SOUTHERN UTAH

CITY           SKY/WX    TMP DP  RH WIND       PRES   REMARKS
BRYCE CANYON   CLOUDY    14  11  87 S3        29.63S
CEDAR CITY     PTCLDY    23  21  92 CALM      29.59F
MILFORD        PTCLDY    21  18  88 SE3       29.61F
ST GEORGE      CLOUDY    37  34  87 CALM      29.68F
HANKSVILLE     CLOUDY    30  30 100 MISG      29.68R VSB<1/4
BLANDING       CLOUDY    28  28 100 S6        29.75R WCI  22

$$

REGIONAL REPORTS     COLORADO/ARIZONA

CITY           SKY/WX    TMP DP  RH WIND       PRES   REMARKS
CRAIG, CO      LGT SNOW  26  23  88 W3        29.57S FOG
GRAND JUNCTION SNOW      31  31 100 W3        29.61R VSB 1/4
RIFLE, CO      LGT SNOW  30  30 100 CALM      29.58S FOG
MONTROSE, CO   CLOUDY    31  25  78 CALM      29.62R
CORTEZ, CO     LGT SNOW  31  27  85 CALM      29.69R FOG
COLORADO CITY  CLOUDY    30  30 100 CALM      29.69F
PAGE, AZ       MOCLDY    35  26  69 SE3       29.69S
GRAND CANYON   LGT SNOW  29  29 100 SW15      29.70F FOG     WCI  18
KINGMAN, AZ    CLOUDY    40  35  83 S8        29.67F WCI  34
FLAGSTAFF, AZ  LGT SNOW  27  26  96 SW14G22   29.72F FOG     WCI  16

$$

REGIONAL REPORTS    NEVADA/IDAHO/WYOMING

CITY           SKY/WX    TMP DP  RH WIND       PRES   REMARKS
LAS VEGAS, NV  CLOUDY    49  35  58 S13G21    29.59F
ELY, NY        LGT SNOW  23  22  96 SW12      29.52F FOG     WCI  12
ELKO, NV       CLOUDY    24  19  81 NE8       29.48F WCI  15
POCATELLO, ID  CLOUDY    28  25  88 CALM      29.57F
BURLEY, ID     PTCLDY    31  22  69 S12       29.53F WCI  22
FORT BRIDGER,  CLOUDY    24  22  93 W6        29.58F WCI  17
EVANSTON, WY   CLOUDY    22  19  89 SW5       29.55F WCI  16
ROCK SPRINGS,  CLOUDY    19  16  88 W6        29.55F WCI  11

$$




USA.gov is the U.S. government's official web portal to all federal, state and local government web resources and services.